COSMOS 2251 DEB, 38199

Orbit data source: Space-Track

COSMOS 2251 DEB, 38199 is space debris in LEO originally from a launch on Wed, 16 Jun 1993 UTC launched from the Plesetsk Missile And Space Complex (PKMTR). The debris from Iridium 33, an American commercial communications satellite, has been tracked extensively since its accidental collision with the defunct Russian satellite Cosmos 2251 in 2009. This event, occurring at high speed in low Earth orbit (LEO), generated thousands of pieces of space debris, significantly increasing the risk of further collisions. The Iridium 33 debris cloud has impacted space traffic management and orbital debris mitigation strategies, making it a subject of ongoing study in space situational awareness.

Loading next visibility...
Identifier
38199, 1993-036BSP
Orbit
LEO
Country
Flag of CISCIS
Related business
Manufacturer
Unknown
Mission
Spacecraft
Bus & Motor
Unknown
Mass
Unknown
Launch date (UTC)
1993-06-16 (33 years ago)
Launch vehicle
Unknown
Launch site
Plesetsk Missile And Space Complex (PKMTR)
Object type
Payload
Rocket body
Debris
Shape & HBR
Unknown shape, 0.1 m
Radar Cross Section
Small (<0.1 m²)

Expand to show TLE details & history
Last TLE update: 1 day ago

TLE from 1 day ago
0 COSMOS 2251 DEB
1 38199U 93036BSP 26036.15744758  .00000599  00000-0  48418-3 0  9990
2 38199  73.9578 332.7641 0370017 248.7550 107.3677 13.64915391617643
Epoch: 2026-02-05T03:46Z
TLE epoch observation values (Epoch: 2026-02-05T03:46:43.470Z)
Latitude
-0.00002°
Longitude
140.76927°
Altitude
1,111.171 km
Speed
7.252 km/s
True Right ascension
22h 11m 03s
True Declination
0° 00' 00"
Sunlit
Object was in daylight at epoch
Visualization orbit readout
Latitude
Unknown
Longitude
Unknown
Altitude
Unknown
Speed
Unknown
Apparent Right ascension
Unknown
Apparent Declination
Unknown
Sunlit
N/A
Visualization observer readout
Local Sidereal Time
12:43:00
Azimuth
Unknown
Elevation
Unknown
Doppler factor
Unknown
Orbital elements
Apogee altitude
1,289.167 km
Perigee altitude
742.007 km
Semi-major axis
7,393.724 km
Eccentricity
0.037
Inclination
73.9578°
RAAN
332.7641°
Arg. of periapsis
248.755°
True anomaly
111.35611°
Mean anomaly
107.3677°
Eccentric anomaly
109.36777°
Mean motion
3.41388 °/min
Orbital period
105.45 mins
BSTAR
0.00048418

Documentation

Showing up to 5 results
|